Regional Weather Roundup
Issued by NWS

Home | Current Version | Previous Version | Graphics & Text | Print | Product List | Glossary On
Versions: 1 2 3 4 5 6 7 8 9 10 11 12 13 14 15 16 17 18 19 20 21 22 23 24 25 26 27 28 29 30 31 32 33 34 35 36 37 38 39 40 41 42 43 44 45 46 47 48 49 50
000
ASUS43 KIND 161509
RWRIN

WEATHER ROUNDUP FOR INDIANA
NATIONAL WEATHER SERVICE INDIANAPOLIS IN
1100 AM EDT WED AUG 16 2017

NOTE: "FAIR" INDICATES FEW OR NO CLOUDS BELOW 12,000 FEET WITH NO
SIGNIFICANT WEATHER AND/OR OBSTRUCTIONS TO VISIBILITY.

* - STATION DOES NOT REPORT WEATHER SUCH AS PRECIPITATION OR FOG.

+ - STATION NOT QUALITY CONTROLLED BY THE NATIONAL WEATHER SERVICE.
    USE DATA WITH CAUTION...ESPECIALLY DEWPOINT AND RELATIVE
    HUMIDITY OBSERVATIONS.

INZ001>003-010>013-019-020-161600-
NORTHWEST INDIANA

CITY           SKY/WX    TMP DP  RH WIND       PRES   REMARKS
GARY /AIRPORT/ SUNNY     79  66  65 SE6       30.01F
KNOX *+        SUNNY     79  70  73 S6        30.02S
LA PORTE +     SUNNY     79  69  70 S6        30.03S
MICHIGAN CITY+ SUNNY     81  68  65 SE3       30.02S
MONTICELLO +   SUNNY     80  72  76 S5        30.02S
RENSSELAER +   SUNNY     79  68  69 SE5       30.02R
VALPARAISO     SUNNY     80  71  74 SE6       30.02S

$$

LMZ046-743>745-161600-
SOUTHERN LAKE MICHIGAN

STATION/POSITION TIME  TEMP    WIND        PRES    WAVE
                       AIR SEA DIR/SP/G            HT
                 (UTC) (F)     (DEG/KT/KT) (MB)    (FT)
BURNS HARBOR     1440   77     300/  2/  3 1016.6S
MICHIGAN CITY    1440   78     140/  5/  6   N/A
5NW MICH CITY    1500   74 74   70/  2/  4   N/A     2

$$

INZ004-005-014>016-021>024-161600-
NORTH CENTRAL INDIANA

CITY           SKY/WX    TMP DP  RH WIND       PRES   REMARKS
ELKHART        SUNNY     79  66  65 CALM      30.03F
GOSHEN         SUNNY     80  66  62 SE6       30.04F
LOGANSPORT +   SUNNY     81  70  69 S5        30.04S
PERU/GRISSOM   SUNNY     82  71  68 S5        30.03S
ROCHESTER +    SUNNY     82  70  65 SE5       30.04S
SOUTH BEND     MOSUNNY   80  67  64 S6        30.03F
WARSAW +       SUNNY     79  68  69 S3        30.04S

$$

INZ006>009-017-018-025>027-161600-
NORTHEAST INDIANA

CITY           SKY/WX    TMP DP  RH WIND       PRES   REMARKS
AUBURN +       SUNNY     79  66  65 E5        30.06S
FORT WAYNE     MOSUNNY   79  67  66 CALM      30.06R
HUNTINGTON +   SUNNY     79  69  70 SE3       30.05R
KENDALLVILLE + MOSUNNY   77  69  75 SE3       30.07S

$$

INZ028-029-035-036-043>045-051>053-161600-
WEST CENTRAL INDIANA

CITY           SKY/WX    TMP DP  RH WIND       PRES   REMARKS
GREENCASTLE +  MOSUNNY   79  72  78 SE5       30.04S
LAFAYETTE      SUNNY     81  72  74 CALM      30.01S
TERRE HAUTE    MOSUNNY   81  73  76 SE7       30.02S

$$

INZ030>032-037>040-046>048-054>057-064-065-161600-
CENTRAL INDIANA

CITY           SKY/WX    TMP DP  RH WIND       PRES   REMARKS
CP ATTERBURY + SUNNY     81  70  69 SE6       30.05S
COLUMBUS       SUNNY     81  68  65 CALM      30.05R
FRANKFORT +    MOSUNNY   84  73  68 CALM      30.05S
GREENWOOD *+   SUNNY     82  69  65 S5        30.05S
INDIANAPOLIS   MOSUNNY   83  70  64 VRB7      30.03S
-EAGLE CREEK   SUNNY     83  69  62 S5        30.03S
KOKOMO +       SUNNY     82  71  69 S6        30.05S
MARION +       SUNNY     81  70  69 CALM      30.05S
MT COMFORT *+  SUNNY     81  70  69 CALM      30.05R
SHELBYVILLE    SUNNY     83  71  67 CALM      30.04R
ZIONSVILLE +   SUNNY     80  70  72 S3        30.05S

$$

INZ033-034-041-042-049-050-058-059-161600-
EAST CENTRAL INDIANA

CITY           SKY/WX    TMP DP  RH WIND       PRES   REMARKS
MUNCIE         SUNNY     85  68  56 VRB5      30.05S
RICHMOND +     SUNNY     79  70  73 S3        30.08S

$$

INZ060-061-067>069-081>083-085>088-161600-
SOUTHWEST INDIANA

CITY           SKY/WX    TMP DP  RH WIND       PRES   REMARKS
EVANSVILLE     CLOUDY    80  72  76 SW7       30.03S
HUNTINGBURG +  CLOUDY    76  73  91 MISG      30.04R
WASHINGTON +   CLOUDY    80  72  78 MISG      30.02R

$$

INZ062-063-066-070>080-084-089>092-161600-
SOUTH CENTRAL AND SOUTHEAST INDIANA

CITY           SKY/WX    TMP DP  RH WIND       PRES   REMARKS
BEDFORD +      SUNNY     81  70  69 SE6       30.03S
BLOOMINGTON    MOSUNNY   82  70  66 SE8       30.04R
MADISON *+     PTSUNNY   82  70  65 SE3       30.07S
NORTH VERNON + SUNNY     82  70  65 CALM      30.05S
SEYMOUR +      MOSUNNY   84  72  65 S3        30.04R

$$





USA.gov is the U.S. government's official web portal to all federal, state and local government web resources and services.